Weather Roundup
Issued by NWS

Home | Current Version | Previous Version | Text Only | Print | Product List | Glossary On
Versions: 1 2 3 4 5 6 7 8 9 10 11 12 13 14 15 16 17 18 19 20 21 22 23 24 25 26 27 28 29 30 31 32 33 34 35 36 37 38 39 40 41 42 43 44 45 46 47 48 49 50
773
NZUS93 KARX 300559
HRRWXR

CURRENT HOURLY OBSERVATIONS ACROSS
MUCH OF THE UPPER MISSISSIPPI VALLEY
NATIONAL WEATHER SERVICE LA CROSSE WI
100 AM CDT FRI SEP 30 2016


...SOUTHEAST MINNESOTA...


CITY           SKY/WX    TMP DP  RH WIND       PRES   REMARKS
ROCHESTER      CLEAR     53  50  89 NE7       30.36F
ROCHESTER/MAYO NOT AVBL
WINONA         CLEAR     52  52 100 NW3       30.36F
AUSTIN         CLEAR     48  46  93 CALM      30.35F
ALBERT LEA     CLEAR     50  48  93 CALM      30.36F
DODGE CENTER   CLEAR     50  48  93 N6        30.37S
PRESTON        CLEAR     51  48  87 NE5       30.36S
OWATONNA       CLEAR     46  45  93 CALM      30.37F
FARIBAULT      CLEAR     50  48  93 N3        30.38S
$$

...ELSEWHERE IN MINNESOTA...


CITY           SKY/WX    TMP DP  RH WIND       PRES   REMARKS
MINNEAPOLIS    CLEAR     56  51  84 CALM      30.39S
INTNL FALLS    CLOUDY    47  45  93 SE5       30.45F
DULUTH         FOG       51  51 100 E9        30.45S VSB 1/2
RED WING       CLEAR     54  52  94 CALM      30.37F
REDWOOD FALLS  CLEAR     50  47  89 NE3       30.38S
MANKATO        CLEAR     54  50  86 E5        30.38S
WORTHINGTON    CLEAR     48  45  89 E7        30.38S
FAIRMONT       CLEAR     47  45  93 NW3       30.37F
$$

...SOUTHWEST WISCONSIN...


CITY           SKY/WX    TMP DP  RH WIND       PRES   REMARKS
LA CROSSE      CLEAR     54  52  93 CALM      30.34F
PRAIRIE DU CHI CLEAR     56  48  72 NW3       30.30F
BOSCOBEL       CLEAR     56  49  77 E3        30.30F
LONE ROCK      NOT AVBL
PLATTEVILLE    CLEAR     54  49  85 N6        30.29S
FORT MC COY    CLEAR     45  45 100 CALM      30.35F
MAUSTON-NEW LI NOT AVBL
VIROQUA        FAIR      55  49  79 NE7       30.33F
WIS DELLS      CLOUDY    56  49  77 N5        30.30F
$$

...ELSEWHERE IN WISCONSIN...


CITY           SKY/WX    TMP DP  RH WIND       PRES   REMARKS
MILWAUKEE      CLOUDY    61  55  81 NE12      30.25F
MADISON        PTCLDY    56  53  90 N10       30.27F
GREEN BAY      CLOUDY    57  56  96 N10       30.33F
EAU CLAIRE     NOT AVBL
BLACK RVR FLS  FAIR      50  50 100 NE3       30.36S
MEDFORD        CLEAR    N/A N/A N/A NE5       30.39F
WAUSAU         CLEAR     53  48  83 NE6       30.36F
WIS RAPIDS     CLEAR     55  51  86 NE8       30.36F
MARSHFIELD     CLEAR     55  49  80 NE10      30.36F
RICE LAKE      NOT AVBL
$$

...NORTHEAST IOWA...


CITY           SKY/WX    TMP DP  RH WIND       PRES   REMARKS
WATERLOO       CLEAR     52  48  86 N5        30.31F
DUBUQUE        CLEAR     54  47  77 NE8       30.27F
DECORAH        CLEAR     54  54 100 NE5       30.32F
MASON CITY     CLEAR     47  45  93 NW3       30.36F
CHARLES CITY   CLEAR     54  50  87 N6        30.34F
OELWEIN        CLEAR     54  52  94 N8        30.31F
$$

...ELSEWHERE IN IOWA...


CITY           SKY/WX    TMP DP  RH WIND       PRES   REMARKS
DES MOINES     CLEAR     59  49  69 NE8       30.30F
IOWA CITY      CLEAR     58  49  72 N7        30.27F
FORT DODGE     CLEAR     48  45  87 CALM      30.35F
MARSHALLTOWN   CLEAR     54  51  90 NE8       30.30F
CEDAR RAPIDS   CLEAR     53  50  89 N9        30.27F
$$

...NORTHERN ILLINOIS...


CITY           SKY/WX    TMP DP  RH WIND       PRES   REMARKS
CHICAGO-OHARE  LGT RAIN  60  58  92 NE15      30.17F
CHICAGO-MIDWAY DRIZZLE   63  56  78 N14       30.15F
MOLINE         MOCLDY    62  51  67 N8        30.22F
ROCKFORD       CLOUDY    61  56  83 N10       30.24F
PEORIA         CLEAR     60  58  92 N6        30.17F
$$

NOTE: "FAIR" INDICATES FEW OR NO CLOUDS BELOW 12,000 FEET WITH NO
SIGNIFICANT WEATHER AND/OR OBSTRUCTIONS TO VISIBILITY. WIND
SPEEDS ARE IN MILES-PER-HOUR.




USA.gov is the U.S. government's official web portal to all federal, state and local government web resources and services.